Location: Caltech
(34.1382°N, 118.1253°W)
Time: 17:17:30
(UTC-07:00)

Uribyol 2 - Visible Passes

Search period start: 25 June 2017 00:00
Search period end: 05 July 2017 00:00
Orbit: 783 x 796 km, 98.8° (Epoch: 25 June)

Date Brightness Start Highest point End Pass type
(mag) Time Alt. Az. Time Alt. Az. Time Alt. Az.
25 Jun ? 03:20:24 10° NE 03:24:24 22° E 03:28:21 10° SE visible
25 Jun ? 04:59:06 10° N 05:03:52 37° WNW 05:08:37 10° SW visible
26 Jun ? 02:53:49 10° E 02:54:27 10° E 02:55:07 10° E visible
26 Jun ? 04:29:08 10° N 04:34:21 74° WNW 04:39:16 11° SSW visible
27 Jun ? 03:59:34 10° NNE 04:04:42 56° E 04:09:12 13° S visible
28 Jun ? 03:30:30 10° NE 03:34:56 28° E 03:39:10 11° SSE visible
28 Jun ? 05:09:47 10° N 05:14:16 30° WNW 05:18:43 10° SW visible
29 Jun ? 03:02:30 10° ENE 03:05:02 14° E 03:07:33 10° ESE visible
29 Jun ? 04:39:39 10° N 04:44:47 58° WNW 04:49:48 10° SSW visible
30 Jun ? 04:09:57 10° NNE 04:15:11 71° ESE 04:19:45 13° S visible
01 Jul ? 03:40:42 10° NNE 03:45:27 35° E 03:49:41 12° SSE visible
02 Jul ? 03:12:11 10° NE 03:15:36 17° E 03:18:59 10° SE visible
02 Jul ? 04:50:14 10° N 04:55:12 46° WNW 05:00:08 10° SW visible
03 Jul ? 04:20:24 10° NNE 04:25:38 89° ESE 04:30:16 13° SSW visible
04 Jul ? 03:50:58 10° NNE 03:55:57 44° E 04:00:12 14° SSE visible
